Powrót do katalogu

STARLINK-35952

AktywnyŁącznośćVLEO
NORAD 66520·PAYLOAD·🇺🇸 United States

Wystrzelony Nov 19, 2025 z Cape Canaveral Space Force Station

Loading…

Następne Przeloty (najbliższe 24 godziny)

TLE

ŚwieżeSource: CelesTrak SupGP

Epoka: Sep 15, 2026, 03:38 UTC

1 66520C 25265E   26258.15187500 -.00004472  00000+0 -16195-3 0  2580
2 66520  43.0016 288.1549 0001283 262.2493 216.8354 15.27586478    17

Śledź STARLINK-35952 w czasie rzeczywistym z AllMySat

Download on the App Store